Location: Hilton Head Island
(32.2163°N, 80.7526°W)
Time: 07:11:45
(UTC-04:00)

Altair - Pass Details

Date: 16 February 2026
Orbit: 1502 x 1682 km, 47.2° (Epoch: 8 March)

Event Time Altitude Azimuth Distance (km) Brightness Sun altitude
Exits shadow 04:47:26 54° 235° (SW) 1,776 7.4 -29.6°
Maximum altitude 04:50:00 87° 321° (NW) 1,518 7.3 -29.0°
Drops below altitude 10° 04:59:25 10° 52° (NE) 3,729 10.2 -27.1°
Sets 05:02:31 0° 53° (NE) 4,737 10.9 -26.4°
